Terug naar catalogus

STARLINK-11403

ActiefCommunicatieVLEO
NORAD 63060·PAYLOAD·🇺🇸 United States

Gelanceerd Feb 21, 2025 vanaf Cape Canaveral Space Force Station

Loading…

Volgende Passages (komende 24 uur)

TLE

VersSource: CelesTrak SupGP

Epoch: Sep 15, 2026, 03:24 UTC

1 63060C 25035J   26258.14215278  .00062211  00000+0  48333-3 0  2586
2 63060  43.0000 313.4626 0001534 260.0213 182.2702 15.70801028    11

Volg STARLINK-11403 in realtime met AllMySat

Download on the App Store